Sigfox identifier Datetime Temperature Humidity SNR
002EED83 2019-04-23 14:41:44 16.5 31 23.1
002EED83 2019-04-23 14:07:32 16.3 30 23.2
002EED83 2019-04-23 13:33:21 16.2 30 23.1
002EED83 2019-04-23 12:59:10 16 30 23.1
002EED83 2019-04-23 12:24:58 15.8 30 22.9
002EED83 2019-04-23 11:50:46 15.7 30 22.9
002EED83 2019-04-23 11:16:35 15.6 30 22.8
002EED83 2019-04-23 10:42:24 15.6 30 21.9
002EED83 2019-04-23 10:08:11 15.4 30 21.7
002EED83 2019-04-23 09:34:00 15.4 30 21.6
002EED83 2019-04-23 08:59:47 15.4 30 21.2
002EED83 2019-04-23 08:25:34 15.4 30 20.9
002EED83 2019-04-23 07:51:21 15.4 30 20.6
002EED83 2019-04-23 07:17:09 15.4 30 20.7
002EED83 2019-04-23 06:42:56 15.4 30 20.8
002EED83 2019-04-23 06:08:44 15.4 30 20.5
002EED83 2019-04-23 05:34:31 15.4 30 20.2
002EED83 2019-04-23 05:00:18 15.4 30 19.9
002EED83 2019-04-23 04:26:06 15.4 30 19.9
002EED83 2019-04-23 03:51:53 15.4 30 19.7
002EED83 2019-04-23 03:17:41 15.4 30 19.8
002EED83 2019-04-23 02:43:29 15.4 30 19.7
002EED83 2019-04-23 02:09:16 15.4 30 19.6
002EED83 2019-04-23 01:35:03 15.4 30 19.5
002EED83 2019-04-23 01:00:51 15.4 30 19.4
002EED83 2019-04-23 00:26:39 15.4 30 19.6
002EED83 2019-04-22 23:52:25 15.5 30 19.6
002EED83 2019-04-22 23:18:12 15.5 30 19.7
002EED83 2019-04-22 22:44:00 15.5 30 19.7
002EED83 2019-04-22 22:09:48 15.6 30 19.7
002EED83 2019-04-22 21:35:33 15.6 30 19.7
002EED83 2019-04-22 21:01:20 15.6 30 19.7
002EED83 2019-04-22 20:27:07 15.6 29 19.7
002EED83 2019-04-22 19:52:55 15.8 29 19.9
002EED83 2019-04-22 19:18:43 15.8 29 20.2
002EED83 2019-04-22 18:44:31 15.8 29 20.4
002EED83 2019-04-22 18:10:19 15.8 29 20.5
002EED83 2019-04-22 17:36:07 15.8 29 20.5
002EED83 2019-04-22 17:01:54 15.8 29 20.6
002EED83 2019-04-22 16:27:42 15.8 29 20.8
002EED83 2019-04-22 15:53:31 15.8 29 21.1
002EED83 2019-04-22 15:19:17 15.7 29 21
002EED83 2019-04-22 14:45:05 15.6 29 21.1
002EED83 2019-04-22 14:10:53 15.6 29 21.1
002EED83 2019-04-22 13:36:41 15.6 29 21.2
002EED83 2019-04-22 13:02:30 15.6 29 21.4
002EED83 2019-04-22 12:28:20 15.6 29 21.5
002EED83 2019-04-22 11:54:08 15.6 29 21.6
002EED83 2019-04-22 11:19:56 15.6 29 21.6
002EED83 2019-04-22 10:45:44 15.6 29 21.5
002EED83 2019-04-22 10:11:32 15.5 29 21.4
002EED83 2019-04-22 09:37:20 15.4 29 21.3
002EED83 2019-04-22 09:03:09 15.4 29 21.3
002EED83 2019-04-22 08:28:56 15.4 29 21.3
002EED83 2019-04-22 07:54:44 15.4 29 21.2
002EED83 2019-04-22 07:20:30 15.4 29 21.2
002EED83 2019-04-22 06:46:16 15.4 29 21.1
002EED83 2019-04-22 06:12:03 15.5 29 21.1
002EED83 2019-04-22 05:37:50 15.6 29 20.9
002EED83 2019-04-22 05:03:37 15.5 29 20.7
002EED83 2019-04-22 04:29:24 15.5 29 20.8
002EED83 2019-04-22 03:55:10 15.6 29 20.7
002EED83 2019-04-22 03:20:57 15.4 29 20.7
002EED83 2019-04-22 02:46:44 15.6 29 20.6
002EED83 2019-04-22 02:12:31 15.4 29 20.6
002EED83 2019-04-22 01:38:17 15.5 29 20.8
002EED83 2019-04-22 01:04:04 15.4 29 21.2
002EED83 2019-04-22 00:29:51 15.4 29 21.1
002EED83 2019-04-21 23:55:38 15.4 29 21.2
002EED83 2019-04-21 23:21:25 15.3 29 21.2
002EED83 2019-04-21 22:47:13 15.3 28 21
002EED83 2019-04-21 22:13:00 15.4 29 21.1
002EED83 2019-04-21 21:38:47 15.4 28 21.2
002EED83 2019-04-21 21:04:34 15.4 28 21.1
002EED83 2019-04-21 20:30:22 15.4 28 21.2
002EED83 2019-04-21 19:56:09 15.4 28 21.4
002EED83 2019-04-21 19:21:57 15.4 28 21.6
002EED83 2019-04-21 18:47:45 15.4 28 21.8
002EED83 2019-04-21 18:13:32 15.4 28 21.9
002EED83 2019-04-21 17:39:20 15.4 28 22.1
002EED83 2019-04-21 17:05:09 15.4 28 22.3
002EED83 2019-04-21 16:30:56 15.2 28 22.4
002EED83 2019-04-21 15:56:44 15.2 28 22.6
002EED83 2019-04-21 15:22:32 15.2 28 22.6
002EED83 2019-04-21 14:48:19 15.2 28 22.7
002EED83 2019-04-21 14:14:07 15.2 28 22.7
002EED83 2019-04-21 13:39:54 15.2 28 22.7
002EED83 2019-04-21 13:05:41 15.2 28 22.8
002EED83 2019-04-21 12:31:28 15.2 28 22.8
002EED83 2019-04-21 11:57:15 15.2 28 22.8
002EED83 2019-04-21 11:23:03 15.2 28 22.6
002EED83 2019-04-21 10:48:50 15.2 28 22.4
002EED83 2019-04-21 10:14:37 15.2 28 22.4
002EED83 2019-04-21 09:40:25 15.2 28 22.3
002EED83 2019-04-21 09:06:13 15.4 28 22.2
002EED83 2019-04-21 08:32:01 15.5 28 22.2
002EED83 2019-04-21 07:57:48 15.6 28 22
002EED83 2019-04-21 07:23:36 15.4 28 22
002EED83 2019-04-21 06:49:22 15.6 28 22
002EED83 2019-04-21 06:15:09 15.4 28 22
002EED83 2019-04-21 05:40:56 15.5 28 21.7
002EED83 2019-04-21 05:06:41 15.6 28 21.5
002EED83 2019-04-21 04:32:28 15.4 28 21.3
002EED83 2019-04-21 03:58:15 15.6 28 21.2
002EED83 2019-04-21 03:24:01 15.4 28 21
002EED83 2019-04-21 02:49:48 15.4 28 20.9
002EED83 2019-04-21 02:15:35 15.4 28 20.8
002EED83 2019-04-21 01:41:22 15.4 28 20.7
002EED83 2019-04-21 01:07:09 15.4 28 20.7
002EED83 2019-04-21 00:32:56 15.4 28 20.7
002EED83 2019-04-20 23:58:44 15.4 28 20.6
002EED83 2019-04-20 23:24:32 15.3 27 20.6
002EED83 2019-04-20 22:50:20 15.3 27 20.5
002EED83 2019-04-20 22:16:07 15.4 27 20.3
002EED83 2019-04-20 21:41:55 15.4 27 20.3
002EED83 2019-04-20 21:07:42 15.4 27 21.6
002EED83 2019-04-20 20:33:29 15.4 27 21.7
002EED83 2019-04-20 19:59:16 15.4 27 21.8
002EED83 2019-04-20 19:25:03 15.4 27 22
002EED83 2019-04-20 18:50:49 15.4 27 22.9
002EED83 2019-04-20 18:16:36 15.4 27 23
002EED83 2019-04-20 17:42:23 15.4 27 22.9
002EED83 2019-04-20 17:08:10 15.4 27 22.9
002EED83 2019-04-20 16:33:58 15.4 27 22.9
002EED83 2019-04-20 15:59:45 15.4 27 22.9
002EED83 2019-04-20 15:25:33 15.4 27 23
002EED83 2019-04-20 14:51:21 15.3 27 23
002EED83 2019-04-20 14:17:09 15.2 27 22.9
002EED83 2019-04-20 13:42:56 15.2 27 23
002EED83 2019-04-20 13:08:44 15.3 27 23
002EED83 2019-04-20 12:34:32 15.3 27 23
002EED83 2019-04-20 12:00:20 15.4 27 22.9
002EED83 2019-04-20 11:26:09 15.4 27 22.8
002EED83 2019-04-20 10:51:58 15.4 27 22.7
002EED83 2019-04-20 10:17:46 15.4 27 22.7
002EED83 2019-04-20 09:43:35 15.4 27 22.7
002EED83 2019-04-20 09:09:24 15.4 27 22.7
002EED83 2019-04-20 08:35:13 15.4 27 22.8
002EED83 2019-04-20 08:01:02 15.5 27 22.8
002EED83 2019-04-20 07:26:51 15.6 27 22.8
002EED83 2019-04-20 06:52:40 15.6 27 21.9
002EED83 2019-04-20 06:18:29 15.4 27 21.8
002EED83 2019-04-20 05:44:20 15.6 26 21.7
002EED83 2019-04-20 05:10:06 15.6 27 21.6
002EED83 2019-04-20 04:35:55 15.4 26 20.5
002EED83 2019-04-20 04:01:48 15.4 26 20.7
002EED83 2019-04-20 03:27:32 15.5 26 20.7
002EED83 2019-04-20 02:53:20 15.6 26 20.7
002EED83 2019-04-20 02:19:09 15.6 26 20.8
002EED83 2019-04-20 01:44:58 15.6 26 20.8
002EED83 2019-04-20 01:10:48 15.6 26 20.8
002EED83 2019-04-20 00:36:38 15.7 26 21.1
002EED83 2019-04-20 00:02:27 15.8 26 21.2
002EED83 2019-04-19 23:28:17 15.8 26 21.2
002EED83 2019-04-19 22:54:07 15.8 26 21.2
002EED83 2019-04-19 22:20:00 15.8 26 21.4
002EED83 2019-04-19 21:45:45 15.8 26 21.4
002EED83 2019-04-19 21:11:34 15.9 26 21.4
002EED83 2019-04-19 20:37:24 15.9 26 21.6
002EED83 2019-04-19 20:03:13 16 26 21.6
002EED83 2019-04-19 19:29:00 16 26 21.6
002EED83 2019-04-19 18:54:49 16 26 21.7
002EED83 2019-04-19 18:20:38 16 26 21.6
002EED83 2019-04-19 17:46:27 16 26 21.7
002EED83 2019-04-19 17:12:16 16 26 21.8
002EED83 2019-04-19 16:38:05 16 26 22
002EED83 2019-04-19 16:03:54 15.9 26 22.1
002EED83 2019-04-19 15:29:42 15.8 26 22.2
002EED83 2019-04-19 14:55:30 15.8 26 22.2
002EED83 2019-04-19 14:21:19 15.8 26 22.1
002EED83 2019-04-19 13:47:06 15.7 26 22.2
002EED83 2019-04-19 13:12:53 15.6 26 22.3
002EED83 2019-04-19 12:38:39 15.6 26 22.3
002EED83 2019-04-19 12:04:26 15.6 26 22.4
002EED83 2019-04-19 11:30:13 15.6 26 22.5
002EED83 2019-04-19 10:56:02 15.6 26 22.4
002EED83 2019-04-19 10:21:50 15.6 26 22.5
002EED83 2019-04-19 09:47:38 15.6 25 22.5
002EED83 2019-04-19 09:13:26 15.5 25 22.7
002EED83 2019-04-19 08:39:13 15.5 25 22.9
002EED83 2019-04-19 08:05:01 15.5 25 23.1
002EED83 2019-04-19 07:30:48 15.5 25 23.3
002EED83 2019-04-19 06:56:35 15.6 25 23.5
002EED83 2019-04-19 06:22:23 15.6 25 23.6
002EED83 2019-04-19 05:48:14 15.6 25 23.5
002EED83 2019-04-19 05:13:58 15.7 25 23.5
002EED83 2019-04-19 04:39:46 15.6 25 23.6
002EED83 2019-04-19 04:05:34 15.6 25 23.8
002EED83 2019-04-19 03:31:22 15.6 25 23.8
002EED83 2019-04-19 02:57:10 15.6 25 23.8
002EED83 2019-04-19 02:22:59 15.6 25 23.9
002EED83 2019-04-19 01:48:47 15.8 25 23.8
002EED83 2019-04-19 01:14:35 15.8 25 24.2
002EED83 2019-04-19 00:40:23 15.9 25 24.5
002EED83 2019-04-19 00:06:12 16 25 24.7
002EED83 2019-04-18 23:31:59 16.1 25 24.7
002EED83 2019-04-18 22:57:47 16.3 25 24.8
002EED83 2019-04-18 22:23:36 16.4 25 24.8
002EED83 2019-04-18 21:49:25 16.5 25 24.8
002EED83 2019-04-18 21:15:13 16.5 25 24.7
002EED83 2019-04-18 20:41:02 16.5 25 24.7
002EED83 2019-04-18 20:06:50 16.5 25 24.7
002EED83 2019-04-18 19:32:37 16.5 25 24.7
002EED83 2019-04-18 18:58:24 16.5 25 24.6
002EED83 2019-04-18 18:24:12 16.5 25 24.4
002EED83 2019-04-18 17:50:01 16.5 25 24.4
002EED83 2019-04-18 17:15:48 16.5 25 24.3
002EED83 2019-04-18 16:41:35 16.5 25 24.1
002EED83 2019-04-18 16:07:24 16.5 25 24
002EED83 2019-04-18 15:33:13 16.3 25 24.1
002EED83 2019-04-18 14:59:01 16.3 25 24.1
002EED83 2019-04-18 14:24:50 16.1 25 24.1
002EED83 2019-04-18 13:50:39 16 25 24
002EED83 2019-04-18 13:16:27 15.8 24 24.1
002EED83 2019-04-18 12:42:14 15.8 24 24
002EED83 2019-04-18 12:08:02 15.8 24 23.9
002EED83 2019-04-18 11:33:50 15.9 24 23.9
002EED83 2019-04-18 10:59:39 15.8 24 23.5
002EED83 2019-04-18 10:25:27 15.9 24 23.1
002EED83 2019-04-18 09:51:15 15.6 24 23.2
002EED83 2019-04-18 09:17:03 15.5 24 23.2
002EED83 2019-04-18 08:42:51 15.8 24 23.1
002EED83 2019-04-18 08:08:40 16 24 23.1
002EED83 2019-04-18 07:34:28 16 24 23.1
002EED83 2019-04-18 07:00:16 16 24 23.1
002EED83 2019-04-18 06:26:04 16 24 23
002EED83 2019-04-18 05:51:52 15.9 24 23
002EED83 2019-04-18 05:17:40 15.8 24 22.9
002EED83 2019-04-18 04:43:30 15.8 24 23.1
002EED83 2019-04-18 04:09:17 15.8 24 22.9
002EED83 2019-04-18 03:35:05 15.7 24 22.8
002EED83 2019-04-18 03:00:52 15.6 24 22.6
002EED83 2019-04-18 02:26:39 15.7 24 22.5
002EED83 2019-04-18 01:52:28 15.8 24 22.3
002EED83 2019-04-18 01:18:16 16 24 22.3
002EED83 2019-04-18 00:44:04 16 24 22.1
002EED83 2019-04-18 00:09:51 16.3 24 21.9
002EED83 2019-04-17 23:35:39 16.4 24 21.7
002EED83 2019-04-17 23:01:27 16.4 24 21.5
002EED83 2019-04-17 22:27:15 16.5 23 21.5
002EED83 2019-04-17 21:53:01 16.5 24 21.4
002EED83 2019-04-17 21:18:49 16.3 24 21.2
002EED83 2019-04-17 20:44:36 16.2 23 21
002EED83 2019-04-17 20:10:23 16.2 23 21
002EED83 2019-04-17 19:36:10 16.3 23 20.5
002EED83 2019-04-17 19:01:57 16.2 23 20.1
002EED83 2019-04-17 18:27:44 16.1 23 19.9
002EED83 2019-04-17 17:53:32 16 23 20
002EED83 2019-04-17 17:19:19 16 23 19.8
002EED83 2019-04-17 16:45:09 16 23 19.8
002EED83 2019-04-17 16:10:54 15.8 23 20.2
002EED83 2019-04-17 15:36:42 15.8 23 20
002EED83 2019-04-17 15:02:30 15.8 23 20.1
002EED83 2019-04-17 14:28:18 15.8 23 19.7
002EED83 2019-04-17 13:54:07 16 23 19.8
002EED83 2019-04-17 12:45:43 16.3 23 19.9
002EED83 2019-04-17 12:11:31 16.1 23 20
002EED83 2019-04-17 11:37:19 16 23 20
002EED83 2019-04-17 11:03:07 16 23 20
002EED83 2019-04-17 10:28:55 15.9 23 20
002EED83 2019-04-17 09:54:43 16 23 20
002EED83 2019-04-17 09:20:31 15.9 22 20
002EED83 2019-04-17 08:46:18 16 22 20
002EED83 2019-04-17 08:12:07 16.3 22 20.1
002EED83 2019-04-17 07:37:54 16.5 22 20.3
002EED83 2019-04-17 07:03:43 16.9 22 20.3
002EED83 2019-04-17 06:29:32 17.1 22 20.2
002EED83 2019-04-17 05:55:22 17.1 22 20.3
002EED83 2019-04-17 05:21:11 17.1 22 20.4
002EED83 2019-04-17 04:47:00 17.1 22 20.3
002EED83 2019-04-17 04:12:50 17.3 22 21.6
002EED83 2019-04-17 03:38:37 17.3 22 21.5
002EED83 2019-04-17 03:04:26 17.4 22 21.3
002EED83 2019-04-17 02:30:16 17.5 22 21.4
002EED83 2019-04-17 01:56:05 17.5 22 21.3
002EED83 2019-04-17 01:21:54 17.5 22 20.9
002EED83 2019-04-17 00:47:44 17.3 22 22.1
002EED83 2019-04-17 00:13:33 17.1 22 22
002EED83 2019-04-16 23:39:24 16.9 22 22.1
002EED83 2019-04-16 23:05:13 16.7 22 22
002EED83 2019-04-16 22:31:03 17 22 22
002EED83 2019-04-16 21:56:53 17.5 22 22.1
002EED83 2019-04-16 21:22:43 17.8 22 22.2
002EED83 2019-04-16 20:48:32 18.2 22 22.4
002EED83 2019-04-16 20:14:23 18.2 22 22.3
002EED83 2019-04-16 19:40:12 18.3 22 22.3
002EED83 2019-04-16 19:06:02 18.2 22 22.5
002EED83 2019-04-16 18:31:50 18.2 22 22.5
002EED83 2019-04-16 17:57:41 18.2 22 22.5
002EED83 2019-04-16 16:49:19 18.6 22 22.3
002EED83 2019-04-16 16:15:09 18.7 22 22.3
002EED83 2019-04-16 15:41:03 19 22 22.5
002EED83 2019-04-16 15:06:49 19.2 22 22.4
002EED83 2019-04-16 14:32:40 20.1 21 22.4
002EED83 2019-04-16 13:58:31 21.2 22 22.5
002EED83 2019-04-16 13:24:22 21.2 22 21.3
002EED83 2019-04-16 12:50:15 21.1 22 21.5
002EED83 2019-04-16 12:16:03 21 22 21.6
002EED83 2019-04-16 11:41:55 21 22 21.8
002EED83 2019-04-16 11:07:45 20.8 22 21.8
002EED83 2019-04-16 10:33:38 20.7 22 22.1
002EED83 2019-04-16 09:59:26 20.8 22 21.1
002EED83 2019-04-16 09:25:17 20.7 21 21.5
002EED83 2019-04-16 08:51:07 20.7 21 21.5
002EED83 2019-04-16 08:16:56 20.7 21 21.9
002EED83 2019-04-16 07:42:47 20.7 21 21.9
002EED83 2019-04-16 07:08:39 20.7 21 21.7
002EED83 2019-04-16 06:34:27 20.7 21 21.6
002EED83 2019-04-16 06:00:17 20.7 21 21.3
002EED83 2019-04-16 05:26:08 20.7 21 21.4
002EED83 2019-04-16 04:51:58 20.7 21 21.3
002EED83 2019-04-16 04:17:48 20.7 21 21.3
002EED83 2019-04-16 03:43:38 20.7 21 21.1
002EED83 2019-04-16 03:09:28 20.9 21 21
002EED83 2019-04-16 02:35:19 20.8 21 21
002EED83 2019-04-16 02:01:09 20.9 21 22.1
002EED83 2019-04-16 01:26:59 20.9 21 22.2
002EED83 2019-04-16 00:52:49 20.9 21 22.6
002EED83 2019-04-16 00:18:40 20.9 21 22.9
002EED83 2019-04-15 23:44:30 21 21 23.6
002EED83 2019-04-15 23:10:19 21 21 24.1
002EED83 2019-04-15 22:36:10 21 20 24.2
002EED83 2019-04-15 22:01:59 21 20 24.3
002EED83 2019-04-15 21:27:50 21 20 24.8
002EED83 2019-04-15 20:53:39 21 20 25.1
002EED83 2019-04-15 20:19:30 20.9 20 25.2
002EED83 2019-04-15 19:45:20 21 20 25.6
002EED83 2019-04-15 19:11:11 20.9 20 25.6
002EED83 2019-04-15 18:37:02 20.9 20 26
002EED83 2019-04-15 18:02:52 21 20 26
002EED83 2019-04-15 17:28:43 21 20 26.2
002EED83 2019-04-15 16:54:32 21 20 26.3
002EED83 2019-04-15 16:20:22 21.2 19 26.5
002EED83 2019-04-15 15:46:12 21.2 19 26.6
002EED83 2019-04-15 15:12:04 21.2 19 26.7
002EED83 2019-04-15 14:37:52 21.4 19 26.9
002EED83 2019-04-15 14:03:43 21.4 19 27
002EED83 2019-04-15 13:29:34 21.6 19 27.2
002EED83 2019-04-15 12:55:26 21.8 18 27.3
002EED83 2019-04-15 12:21:15 22.2 18 27.3
002EED83 2019-04-15 11:47:05 22.2 16 27.1
002EED83 2019-04-15 11:12:55 22.2 16 27.2
002EED83 2019-04-15 10:38:47 22.2 17 27.2
002EED83 2019-04-15 10:04:37 22.1 17 27.2
002EED83 2019-04-15 09:30:29 22 17 27
002EED83 2019-04-15 08:56:21 22 17 26.8
002EED83 2019-04-15 08:22:12 21.8 17 26.8
002EED83 2019-04-15 07:48:02 21.8 17 26.8
002EED83 2019-04-15 07:13:52 21.8 17 26.6
002EED83 2019-04-15 06:39:43 21.8 17 26.7
002EED83 2019-04-15 06:05:33 21.6 17 26.6
002EED83 2019-04-15 05:31:22 21.6 17 26.3
002EED83 2019-04-15 04:57:12 21.6 17 26.4
002EED83 2019-04-15 04:23:02 21.6 18 26.4
002EED83 2019-04-15 03:48:51 21.6 18 26.3
002EED83 2019-04-15 03:14:42 21.6 18 26.3
002EED83 2019-04-15 02:40:33 21.6 18 26.3
002EED83 2019-04-15 02:06:23 21.6 18 26.5
002EED83 2019-04-15 01:32:14 21.6 18 26.7
002EED83 2019-04-15 00:58:03 21.6 18 26.7
002EED83 2019-04-15 00:23:53 21.6 18 26.7
002EED83 2019-04-14 23:49:42 21.6 18 26.5
002EED83 2019-04-14 23:15:32 21.6 18 26.6
002EED83 2019-04-14 22:41:21 21.6 18 26.7
002EED83 2019-04-14 22:07:12 21.7 18 26.8
002EED83 2019-04-14 21:33:02 21.8 19 26.9
002EED83 2019-04-14 20:58:53 21.8 19 26.8
002EED83 2019-04-14 20:24:43 21.8 19 27
002EED83 2019-04-14 19:50:32 22 18 26.9
002EED83 2019-04-14 19:16:22 22 18 26.9
002EED83 2019-04-14 18:42:12 22 18 27
002EED83 2019-04-14 18:08:02 21.8 18 27
002EED83 2019-04-14 17:33:51 21.8 18 27
002EED83 2019-04-14 16:59:40 21.8 18 26.9
002EED83 2019-04-14 16:25:29 21.8 18 26.9
002EED83 2019-04-14 15:51:17 21.8 18 26.9
002EED83 2019-04-14 15:17:07 21.8 18 26.9
002EED83 2019-04-14 14:42:57 21.8 18 27.1
002EED83 2019-04-14 14:08:46 21.8 18 26.9
002EED83 2019-04-14 13:34:35 21.8 18 26.8
002EED83 2019-04-14 13:00:24 21.8 19 27
002EED83 2019-04-14 12:26:14 21.8 19 27.1
002EED83 2019-04-14 11:52:04 21.8 19 27.1
002EED83 2019-04-14 11:17:53 21.8 19 27.1
002EED83 2019-04-14 10:43:41 21.8 19 27.1
002EED83 2019-04-14 10:09:29 21.8 19 27.1
002EED83 2019-04-14 09:35:18 21.8 19 27.1
002EED83 2019-04-14 09:01:08 21.8 19 27
002EED83 2019-04-14 08:26:57 21.8 18 26.8
002EED83 2019-04-14 07:52:47 21.8 18 27
002EED83 2019-04-14 07:18:37 21.8 18 27
002EED83 2019-04-14 06:44:26 21.8 18 27.2
002EED83 2019-04-14 06:10:16 21.7 18 27.1
002EED83 2019-04-14 05:36:04 21.7 18 27.2
002EED83 2019-04-14 05:01:53 21.7 18 27.2
002EED83 2019-04-14 04:27:42 21.6 18 27.1
002EED83 2019-04-14 03:53:32 21.8 18 27.1
002EED83 2019-04-14 03:19:21 21.8 18 27.1
002EED83 2019-04-14 02:45:10 21.8 18 27.1
002EED83 2019-04-14 02:11:00 21.8 18 27.1
002EED83 2019-04-14 01:36:49 21.8 18 27.1
002EED83 2019-04-14 01:02:39 21.8 18 27.1
002EED83 2019-04-14 00:28:29 21.8 18 27
002EED83 2019-04-13 23:54:20 21.8 18 27.1
002EED83 2019-04-13 23:20:10 21.8 18 27.1
002EED83 2019-04-13 22:46:00 21.8 18 27.1
002EED83 2019-04-13 22:11:50 21.8 18 27.1
002EED83 2019-04-13 21:37:40 21.8 18 26.9
002EED83 2019-04-13 21:03:30 22 18 26.7
002EED83 2019-04-13 20:29:19 21.9 18 26.8
002EED83 2019-04-13 19:55:09 22 18 26.9
002EED83 2019-04-13 19:21:00 22 18 27
002EED83 2019-04-13 18:46:50 22 18 27.3
002EED83 2019-04-13 18:12:41 22 18 27.4
002EED83 2019-04-13 17:38:31 22 18 27.2
002EED83 2019-04-13 17:04:20 22.1 18 27.2
002EED83 2019-04-13 16:30:11 22.2 18 26.9
002EED83 2019-04-13 15:56:00 22.2 18 26.9
002EED83 2019-04-13 15:21:50 22.2 18 27.1
002EED83 2019-04-13 14:47:39 22.2 18 27.1
002EED83 2019-04-13 14:13:29 22.2 18 27.3
002EED83 2019-04-13 13:39:18 22.2 18 27.3
002EED83 2019-04-13 13:05:08 22.2 18 27.4
002EED83 2019-04-13 12:30:58 22.2 18 27.4
002EED83 2019-04-13 11:56:47 22.2 18 27.5
002EED83 2019-04-13 11:22:38 22.2 18 27.4
002EED83 2019-04-13 10:48:27 22.2 18 27.6
002EED83 2019-04-13 10:14:17 22.2 18 27.5
002EED83 2019-04-13 09:40:08 22.2 18 27.5
002EED83 2019-04-13 09:05:58 22.2 18 27.5
002EED83 2019-04-13 08:31:49 22.2 17 27.3
002EED83 2019-04-13 07:57:39 22.2 17 27.3
002EED83 2019-04-13 07:23:29 22.2 17 27.4
002EED83 2019-04-13 06:49:18 22.2 17 27.5
002EED83 2019-04-13 06:15:08 22.2 17 27.3
002EED83 2019-04-13 05:40:57 22.2 17 27.4
002EED83 2019-04-13 05:06:47 22.2 17 27.4
002EED83 2019-04-13 04:32:36 22.2 17 27.4
002EED83 2019-04-13 03:58:26 22.2 17 27.5
002EED83 2019-04-13 03:24:15 22.2 17 27.6
002EED83 2019-04-13 02:50:04 22.2 17 27.6
002EED83 2019-04-13 02:15:53 22.2 17 27.7
002EED83 2019-04-13 01:41:42 22.3 18 27.7
002EED83 2019-04-13 01:07:32 22.4 18 27.5
002EED83 2019-04-13 00:33:22 22.5 18 27.6
002EED83 2019-04-12 23:59:13 22.5 18 27.5
002EED83 2019-04-12 23:25:03 22.5 18 27.5
002EED83 2019-04-12 22:50:53 22.5 18 27.5
002EED83 2019-04-12 22:16:44 22.5 18 27.6
002EED83 2019-04-12 21:42:34 22.7 18 27.4
002EED83 2019-04-12 21:08:24 22.7 18 27.6
002EED83 2019-04-12 20:34:14 22.7 18 27.4
002EED83 2019-04-12 20:00:03 22.7 18 27.7
002EED83 2019-04-12 19:25:53 22.7 18 27.7
002EED83 2019-04-12 18:51:42 22.7 17 27.9
002EED83 2019-04-12 18:17:32 22.9 17 27.9
002EED83 2019-04-12 17:43:22 23 17 28.1
002EED83 2019-04-12 17:09:11 23.1 17 28.1
002EED83 2019-04-12 16:35:02 23.1 17 28.3
002EED83 2019-04-12 16:00:52 23.1 18 28.7
002EED83 2019-04-12 15:26:41 23 18 28.6
002EED83 2019-04-12 14:52:31 22.9 18 28.7
002EED83 2019-04-12 14:18:20 22.7 19 28.1
002EED83 2019-04-12 13:44:08 22.3 19 26.8
002EED83 2019-04-12 13:09:57 21.4 23 23.5